Location: Glion
(46.4330°N, 6.9246°E)
Time: 05:36:57
(UTC+00:00)

CZ-4B R/B - Pass Details

Date: 03 March 2021
Orbit: 388 x 454 km, 97.6° (Epoch: 22 April)

Event Time Altitude Azimuth Distance (km) Brightness Sun altitude
Rises 18:39:07 0° 358° (N) 2,294 5.1 -14.2°
Reaches altitude 10° 18:41:27 10° 339° (NNW) 1,436 4.3 -14.6°
Maximum altitude 18:43:40 19° 293° (WNW) 1,026 4.2 -15.0°
Drops below altitude 10° 18:45:54 10° 246° (WSW) 1,439 4.9 -15.3°
Sets 18:48:14 0° 227° (SW) 2,301 5.6 -15.7°
